{"data":{"norad_id":48838,"intl_designator":"2021-049A","name":"SXM-8","alt_names":[],"object_type":"PAYLOAD","status":"ACTIVE","operator":null,"country":"US","launch_date":"2021-06-06","launch_site_code":"AFETR","launch_vehicle":null,"mission":null,"orbit_class":"UNKNOWN","rcs_meters":null,"size_class":null,"mass_kg":null,"dimensions":null,"purposes":["comms"],"wikipedia_slug":null,"has_3d_model":false,"image_url":null,"decayed_at":null,"tle_current":{"epoch":"2026-09-20T04:04:24.119904Z","epoch_age_seconds":50467,"freshness":"FRESH","line1":"1 48838U 21049A   26263.16972361 -.00000210  00000+0  00000+0 0  9993","line2":"2 48838   0.0349  53.6527 0005804 344.0759 297.3066  1.00271812 19539","mean_motion":1.00271812,"eccentricity":0.0005804,"inclination_deg":0.0349,"raan_deg":53.6527,"arg_perigee_deg":344.0759,"mean_anomaly_deg":297.3066,"bstar":0,"rev_number":1953,"period_min":1436.0965173343,"perigee_km":35762.114986075,"apogee_km":35811.059798149,"semimajor_km":42164.724392112,"source":"CELESTRAK","updated_at":"2026-09-20T09:00:35.298179Z"}}}